Home   Weather   Ede   Past weeks
Flag for Netherlands

Past Weather in Ede, Netherlands — Yesterday and Last 2 Weeks

Now
45 °F

Fog.


Feels Like: 43 °F
Forecast: 52 / 35 °F
Wind: 3 mph from Southwest

Location: Deelen

Current Time: Mar 23, 2019 at 7:54:10 am

Latest Report: Mar 23, 2019 at 7:25 am


Visibility: 2 mi

Pressure: 30.36 "Hg

Humidity: 93%

Dew Point: 43 °F

Location of EdeLocation

Past Weather in Ede — Graph

°F

Ede Temperature Yesterday

Maximum temperature yesterday: 64 °F (at 2:25 pm)
Minimum temperature yesterday: 43 °F (at 11:55 pm)
Average temperature yesterday: 51 °F

High & Low Weather Summary for the Past Weeks

 TemperatureHumidityPressure
High64 °F (Mar 22, 2:25 pm)100% (Mar 10, 10:25 am)30.54 "Hg (Mar 10, 10:25 am)
Low25 °F (Mar 19, 4:55 am)34% (Mar 22, 3:25 pm)29.33 "Hg (Mar 14, 12:55 pm)
Average45 °F81%29.94 "Hg
* Reported Mar 8 8:25 am — Mar 23 6:55 am, Ede. Weather by CustomWeather, © 2019

Note: Actual official high and low records may vary slightly from our data, if they occured in-between our weather recording intervals... More about our weather records

Advertising

Ede Weather History for the Previous 24 Hours

Scroll right to see more
 ConditionsComfort  
Time TempWeatherWind HumidityBarometerVisibility
6:55 am
Sat, Mar 23
45 °FFog.2 mph93%30.36 "Hg2 mi
6:25 am43 °FFog.1 mph93%30.36 "Hg2 mi
5:55 am43 °FFog.1 mph93%30.36 "Hg2 mi
5:25 am39 °FFog.2 mph93%30.33 "Hg2 mi
4:55 am41 °FFog.3 mph93%30.33 "Hg2 mi
4:25 am43 °FFog.5 mph87%30.33 "Hg2 mi
3:55 am46 °FFog.3 mph87%30.33 "Hg2 mi
3:25 am46 °FFog.3 mph87%30.33 "Hg2 mi
2:55 am45 °FFog.3 mph93%30.33 "Hg2 mi
2:25 am45 °FFog.3 mph93%30.33 "Hg1 mi
1:55 am45 °FFog.6 mph93%30.33 "Hg1 mi
1:25 am45 °FFog.5 mph93%30.33 "Hg1 mi
12:55 am45 °FFog.8 mph93%30.33 "Hg1 mi
12:25 am43 °FFog.10 mph100%30.33 "Hg1 mi
11:55 pm
Fri, Mar 22
43 °FFog.13 mph100%30.33 "Hg1 mi
11:25 pm45 °FFog.10 mph93%30.33 "Hg1 mi
10:55 pm46 °FOvercast.6 mph82%30.33 "Hg3 mi
10:25 pm46 °FOvercast.3 mph76%30.30 "Hg4 mi
9:55 pm48 °FOvercast.7 mph71%30.33 "Hg6 mi
9:25 pm45 °FOvercast.1 mph81%30.30 "HgN/A
8:55 pm46 °FOvercast.1 mph76%30.30 "HgN/A
8:25 pm46 °FOvercast.1 mph76%30.30 "HgN/A
7:55 pm46 °FOvercast.2 mph76%30.30 "HgN/A
7:25 pm50 °FPassing clouds.1 mph67%30.30 "HgN/A
6:55 pm54 °FCool.3 mph63%30.30 "HgN/A
6:25 pm59 °FRefreshingly cool.5 mph51%30.30 "HgN/A
5:55 pm61 °FPartly sunny.5 mph48%30.30 "HgN/A
5:25 pm64 °FMild.3 mph40%30.30 "HgN/A
4:55 pm64 °FMild.5 mph37%30.30 "HgN/A
4:25 pm64 °FMild.3 mph37%30.30 "HgN/A
3:55 pm64 °FMild.5 mph37%30.30 "HgN/A
3:25 pm64 °FOvercast.8 mph34%30.33 "HgN/A
2:55 pm64 °FOvercast.10 mph37%30.33 "HgN/A
2:25 pm64 °FPassing clouds.10 mph37%30.36 "HgN/A
1:55 pm63 °FMild.7 mph49%30.36 "HgN/A
12:55 pm61 °FOvercast.7 mph52%30.39 "Hg6 mi
12:25 pm59 °FOvercast.8 mph59%30.39 "Hg5 mi
11:55 am57 °FOvercast.5 mph63%30.42 "Hg4 mi
11:25 am55 °FOvercast.5 mph72%30.42 "Hg4 mi
10:55 am52 °FFog.5 mph82%30.42 "Hg2 mi
10:25 am50 °FFog.7 mph94%30.45 "Hg2 mi
9:55 am46 °FFog.6 mph100%30.45 "Hg1 mi
9:25 am46 °FFog.6 mph93%30.45 "Hg1 mi
8:55 am46 °FFog.8 mph93%30.45 "Hg0 mi
8:25 am45 °FFog.6 mph100%30.45 "Hg0 mi
7:55 am45 °FFog.6 mph100%30.45 "Hg0 mi
7:25 am45 °FFog.5 mph100%30.45 "Hg0 mi
Weather by CustomWeather, © 2019

See weather overview